Time,TemperatureF,DewpointF,PressureIn,WindDirection,WindDirectionDegrees,WindSpeedMPH,WindSpeedGustMPH,Humidity,HourlyPrecipIn,Conditions,Clouds,dailyrainin,SoftwareType,DateUTC
2013-03-11 00:00:00,52.0,37.0,27.98,ESE,112,0.0,4.0,57,0.00,,,0.00,Rainwise IP-100,2013-03-11 04:00:00,
2013-03-11 00:01:00,52.0,37.0,27.98,ESE,112,2.0,5.0,57,0.00,,,0.00,Rainwise IP-100,2013-03-11 04:01:00,
2013-03-11 00:06:00,52.0,37.0,27.97,ENE,67,0.0,4.0,57,0.00,,,0.00,Rainwise IP-100,2013-03-11 04:06:00,
2013-03-11 00:11:00,52.0,38.0,27.97,South,180,2.0,3.0,58,0.00,,,0.00,Rainwise IP-100,2013-03-11 04:11:00,
2013-03-11 00:17:00,52.0,37.0,27.96,ENE,67,0.0,6.0,57,0.00,,,0.00,Rainwise IP-100,2013-03-11 04:17:00,
2013-03-11 00:22:00,52.0,38.0,27.96,ESE,112,0.0,4.0,58,0.00,,,0.00,Rainwise IP-100,2013-03-11 04:22:00,
2013-03-11 00:27:00,52.0,37.0,27.96,ESE,112,0.0,7.0,57,0.00,,,0.00,Rainwise IP-100,2013-03-11 04:27:00,
2013-03-11 00:32:00,52.0,38.0,27.96,East,90,4.0,4.0,58,0.00,,,0.00,Rainwise IP-100,2013-03-11 04:32:00,
2013-03-11 00:37:00,52.0,37.0,27.97,ESE,112,2.0,8.0,57,0.00,,,0.00,Rainwise IP-100,2013-03-11 04:37:00,
2013-03-11 00:42:00,52.0,38.0,27.97,SSE,157,2.0,7.0,58,0.00,,,0.00,Rainwise IP-100,2013-03-11 04:42:00,
2013-03-11 00:46:00,52.0,38.0,27.96,East,90,1.0,4.0,58,0.00,,,0.00,Rainwise IP-100,2013-03-11 04:46:00,
2013-03-11 00:51:00,52.0,38.0,27.96,NNE,22,0.0,4.0,59,0.00,,,0.00,Rainwise IP-100,2013-03-11 04:51:00,
2013-03-11 00:57:00,52.0,38.0,27.97,ESE,112,3.0,6.0,58,0.00,,,0.00,Rainwise IP-100,2013-03-11 04:57:00,
2013-03-11 01:02:00,52.0,38.0,27.97,ESE,112,0.0,6.0,59,0.00,,,0.00,Rainwise IP-100,2013-03-11 05:02:00,
2013-03-11 01:07:00,52.0,38.0,27.96,ENE,67,3.0,6.0,59,0.00,,,0.00,Rainwise IP-100,2013-03-11 05:07:00,
2013-03-11 01:12:00,51.0,37.0,27.96,ENE,67,1.0,4.0,59,0.00,,,0.00,Rainwise IP-100,2013-03-11 05:12:00,
2013-03-11 01:17:00,51.0,38.0,27.96,NNE,22,0.0,5.0,60,0.00,,,0.00,Rainwise IP-100,2013-03-11 05:17:00,
2013-03-11 01:22:00,51.0,38.0,27.96,ESE,112,3.0,6.0,61,0.00,,,0.00,Rainwise IP-100,2013-03-11 05:22:00,
2013-03-11 01:27:00,51.0,39.0,27.96,ESE,112,1.0,6.0,62,0.00,,,0.00,Rainwise IP-100,2013-03-11 05:27:00,
2013-03-11 01:32:00,51.0,39.0,27.96,ESE,112,0.0,6.0,62,0.00,,,0.00,Rainwise IP-100,2013-03-11 05:32:00,
2013-03-11 01:37:00,50.0,38.0,27.96,ESE,112,0.0,6.0,63,0.00,,,0.00,Rainwise IP-100,2013-03-11 05:37:00,
2013-03-11 01:42:00,50.0,38.0,27.96,SSW,202,0.0,2.0,64,0.00,,,0.00,Rainwise IP-100,2013-03-11 05:42:00,
2013-03-11 01:47:00,50.0,39.0,27.95,SE,135,0.0,5.0,66,0.00,,,0.00,Rainwise IP-100,2013-03-11 05:47:00,
2013-03-11 01:52:00,50.0,39.0,27.95,ESE,112,0.0,4.0,67,0.00,,,0.00,Rainwise IP-100,2013-03-11 05:52:00,
2013-03-11 01:57:00,50.0,39.0,27.95,East,90,0.0,4.0,68,0.00,,,0.00,Rainwise IP-100,2013-03-11 05:57:00,
2013-03-11 02:02:00,51.0,42.0,27.95,ESE,112,0.0,6.0,72,0.00,,,0.00,Rainwise IP-100,2013-03-11 06:02:00,
2013-03-11 02:07:00,51.0,43.0,27.95,SE,135,1.0,7.0,74,0.00,,,0.00,Rainwise IP-100,2013-03-11 06:07:00,
2013-03-11 02:12:00,50.0,42.0,27.95,SSE,157,1.0,4.0,76,0.00,,,0.00,Rainwise IP-100,2013-03-11 06:12:00,
2013-03-11 02:17:00,50.0,43.0,27.95,ESE,112,2.0,5.0,78,0.00,,,0.00,Rainwise IP-100,2013-03-11 06:17:00,
2013-03-11 02:22:00,50.0,45.0,27.95,ESE,112,6.0,6.0,83,0.00,,,0.00,Rainwise IP-100,2013-03-11 06:22:00,
2013-03-11 02:27:00,50.0,45.0,27.95,SE,135,1.0,6.0,82,0.00,,,0.00,Rainwise IP-100,2013-03-11 06:27:00,
2013-03-11 02:32:00,50.0,47.0,27.95,ESE,112,0.0,4.0,90,0.00,,,0.00,Rainwise IP-100,2013-03-11 06:32:00,
2013-03-11 02:37:00,50.0,47.0,27.95,SSW,202,0.0,6.0,90,0.00,,,0.00,Rainwise IP-100,2013-03-11 06:37:00,
2013-03-11 02:42:00,50.0,47.5,27.95,SE,135,2.0,4.0,93,0.00,,,0.00,Rainwise IP-100,2013-03-11 06:42:00,
2013-03-11 02:47:00,50.0,47.5,27.95,SE,135,0.0,7.0,93,0.00,,,0.00,Rainwise IP-100,2013-03-11 06:47:00,
2013-03-11 02:52:00,50.0,49.0,27.95,ESE,112,2.0,4.0,96,0.00,,,0.00,Rainwise IP-100,2013-03-11 06:52:00,
2013-03-11 02:57:00,50.0,49.0,27.94,East,90,0.0,6.0,96,0.00,,,0.00,Rainwise IP-100,2013-03-11 06:57:00,
2013-03-11 03:02:00,50.0,49.0,27.94,ESE,112,0.0,4.0,98,0.00,,,0.00,Rainwise IP-100,2013-03-11 07:02:00,
2013-03-11 03:07:00,50.0,49.0,27.94,ESE,112,1.0,8.0,98,0.00,,,0.00,Rainwise IP-100,2013-03-11 07:07:00,
2013-03-11 03:12:00,50.0,50.0,27.94,ENE,67,3.0,4.0,100,0.00,,,0.00,Rainwise IP-100,2013-03-11 07:12:00,
2013-03-11 03:17:00,50.0,50.0,27.94,ENE,67,3.0,5.0,100,0.00,,,0.00,Rainwise IP-100,2013-03-11 07:17:00,
2013-03-11 03:22:00,50.0,50.0,27.94,ESE,112,0.0,9.0,100,0.00,,,0.00,Rainwise IP-100,2013-03-11 07:22:00,
2013-03-11 03:27:00,50.0,50.0,27.93,ESE,112,0.0,4.0,100,0.00,,,0.00,Rainwise IP-100,2013-03-11 07:27:00,
2013-03-11 03:32:00,50.0,50.0,27.93,ENE,67,2.0,7.0,100,0.00,,,0.00,Rainwise IP-100,2013-03-11 07:32:00,
2013-03-11 03:37:00,50.0,50.0,27.92,ENE,67,1.0,6.0,100,0.00,,,0.00,Rainwise IP-100,2013-03-11 07:37:00,
2013-03-11 03:42:00,50.0,50.0,27.92,SSW,202,2.0,6.0,100,0.00,,,0.00,Rainwise IP-100,2013-03-11 07:42:00,
2013-03-11 03:47:00,50.0,50.0,27.93,ESE,112,1.0,3.0,100,0.00,,,0.00,Rainwise IP-100,2013-03-11 07:47:00,
2013-03-11 03:52:00,50.0,50.0,27.93,SSE,157,4.0,4.0,100,0.00,,,0.00,Rainwise IP-100,2013-03-11 07:52:00,
2013-03-11 03:57:00,50.0,50.0,27.92,NE,45,1.0,5.0,100,0.00,,,0.00,Rainwise IP-100,2013-03-11 07:57:00,
2013-03-11 04:02:00,50.0,50.0,27.92,East,90,5.0,7.0,100,0.00,,,0.00,Rainwise IP-100,2013-03-11 08:02:00,
2013-03-11 04:07:00,50.0,50.0,27.92,ENE,67,0.0,5.0,100,0.00,,,0.00,Rainwise IP-100,2013-03-11 08:07:00,
2013-03-11 04:12:00,49.0,49.0,27.92,ESE,112,0.0,3.0,100,0.00,,,0.00,Rainwise IP-100,2013-03-11 08:12:00,
2013-03-11 04:17:00,49.0,49.0,27.92,SSE,157,0.0,5.0,100,0.00,,,0.00,Rainwise IP-100,2013-03-11 08:17:00,
2013-03-11 04:22:00,49.0,49.0,27.92,ESE,112,1.0,2.0,100,0.00,,,0.00,Rainwise IP-100,2013-03-11 08:22:00,
2013-03-11 04:27:00,49.0,49.0,27.92,ENE,67,1.0,6.0,100,0.00,,,0.00,Rainwise IP-100,2013-03-11 08:27:00,
2013-03-11 04:33:00,49.0,49.0,27.92,ENE,67,4.0,6.0,100,0.00,,,0.00,Rainwise IP-100,2013-03-11 08:33:00,
2013-03-11 04:38:00,49.0,49.0,27.92,ENE,67,1.0,10.0,100,0.00,,,0.00,Rainwise IP-100,2013-03-11 08:38:00,
2013-03-11 04:43:00,49.0,49.0,27.92,SSE,157,0.0,5.0,100,0.00,,,0.00,Rainwise IP-100,2013-03-11 08:43:00,
2013-03-11 04:48:00,49.0,49.0,27.91,ENE,67,2.0,4.0,100,0.00,,,0.00,Rainwise IP-100,2013-03-11 08:48:00,
2013-03-11 04:53:00,49.0,49.0,27.91,SSE,157,6.0,8.0,100,0.00,,,0.00,Rainwise IP-100,2013-03-11 08:53:00,
2013-03-11 04:58:00,49.0,49.0,27.90,NE,45,0.0,7.0,100,0.00,,,0.00,Rainwise IP-100,2013-03-11 08:58:00,
2013-03-11 05:03:00,49.0,49.0,27.90,ESE,112,2.0,9.0,100,0.00,,,0.00,Rainwise IP-100,2013-03-11 09:03:00,
2013-03-11 05:08:00,49.0,49.0,27.90,SSE,157,0.0,6.0,100,0.00,,,0.00,Rainwise IP-100,2013-03-11 09:08:00,
2013-03-11 05:13:00,49.0,49.0,27.90,East,90,0.0,9.0,100,0.00,,,0.00,Rainwise IP-100,2013-03-11 09:13:00,
2013-03-11 05:18:00,49.0,49.0,27.90,ENE,67,0.0,9.0,100,0.00,,,0.00,Rainwise IP-100,2013-03-11 09:18:00,
2013-03-11 05:23:00,49.0,49.0,27.90,SSE,157,3.0,7.0,100,0.00,,,0.00,Rainwise IP-100,2013-03-11 09:23:00,
2013-03-11 05:28:00,49.0,49.0,27.90,SSE,157,0.0,9.0,100,0.00,,,0.00,Rainwise IP-100,2013-03-11 09:28:00,
2013-03-11 05:33:00,49.0,49.0,27.90,SE,135,1.0,7.0,100,0.00,,,0.00,Rainwise IP-100,2013-03-11 09:33:00,
2013-03-11 05:38:00,49.0,49.0,27.89,East,90,1.0,6.0,100,0.00,,,0.00,Rainwise IP-100,2013-03-11 09:38:00,
2013-03-11 05:43:00,49.0,49.0,27.89,ESE,112,5.0,6.0,100,0.00,,,0.00,Rainwise IP-100,2013-03-11 09:43:00,
2013-03-11 05:48:00,48.0,48.0,27.90,ENE,67,0.0,6.0,100,0.00,,,0.00,Rainwise IP-100,2013-03-11 09:48:00,
2013-03-11 05:53:00,48.0,48.0,27.90,West,270,1.0,6.0,100,0.00,,,0.00,Rainwise IP-100,2013-03-11 09:53:00,
2013-03-11 05:58:00,48.0,48.0,27.89,ESE,112,1.0,4.0,100,0.00,,,0.00,Rainwise IP-100,2013-03-11 09:58:00,
2013-03-11 06:03:00,48.0,48.0,27.89,East,90,1.0,7.0,100,0.00,,,0.00,Rainwise IP-100,2013-03-11 10:03:00,
2013-03-11 06:08:00,48.0,48.0,27.89,ESE,112,2.0,4.0,100,0.00,,,0.00,Rainwise IP-100,2013-03-11 10:08:00,
2013-03-11 06:13:00,48.0,48.0,27.89,SSE,157,0.0,7.0,100,0.00,,,0.00,Rainwise IP-100,2013-03-11 10:13:00,
2013-03-11 06:18:00,48.0,48.0,27.89,East,90,3.0,5.0,100,0.00,,,0.00,Rainwise IP-100,2013-03-11 10:18:00,
2013-03-11 06:23:00,48.0,48.0,27.89,ESE,112,6.0,6.0,100,0.00,,,0.00,Rainwise IP-100,2013-03-11 10:23:00,
2013-03-11 06:28:00,48.0,48.0,27.90,ESE,112,0.0,8.0,100,0.00,,,0.00,Rainwise IP-100,2013-03-11 10:28:00,
2013-03-11 06:33:00,48.0,48.0,27.90,SE,135,4.0,7.0,100,0.00,,,0.00,Rainwise IP-100,2013-03-11 10:33:00,
2013-03-11 06:38:00,48.0,48.0,27.90,SSE,157,3.0,4.0,100,0.00,,,0.00,Rainwise IP-100,2013-03-11 10:38:00,
2013-03-11 06:43:00,48.0,48.0,27.90,ESE,112,3.0,3.0,100,0.00,,,0.00,Rainwise IP-100,2013-03-11 10:43:00,
2013-03-11 06:48:00,48.0,48.0,27.91,SSE,157,3.0,4.0,100,0.00,,,0.00,Rainwise IP-100,2013-03-11 10:48:00,
2013-03-11 06:53:00,48.0,48.0,27.91,ESE,112,2.0,7.0,100,0.00,,,0.00,Rainwise IP-100,2013-03-11 10:53:00,
2013-03-11 06:58:00,48.0,48.0,27.90,SSE,157,2.0,5.0,100,0.00,,,0.00,Rainwise IP-100,2013-03-11 10:58:00,
2013-03-11 07:03:00,48.0,48.0,27.90,SE,135,0.0,3.0,100,0.00,,,0.00,Rainwise IP-100,2013-03-11 11:03:00,
2013-03-11 07:08:00,48.0,48.0,27.90,SSE,157,2.0,4.0,100,0.00,,,0.00,Rainwise IP-100,2013-03-11 11:08:00,
2013-03-11 07:13:00,48.0,48.0,27.90,South,180,4.0,8.0,100,0.00,,,0.00,Rainwise IP-100,2013-03-11 11:13:00,
2013-03-11 07:18:00,48.0,48.0,27.90,SSW,202,4.0,7.0,100,0.00,,,0.00,Rainwise IP-100,2013-03-11 11:18:00,
2013-03-11 07:23:00,48.0,48.0,27.90,SSE,157,1.0,7.0,100,0.00,,,0.00,Rainwise IP-100,2013-03-11 11:23:00,
2013-03-11 07:28:00,48.0,48.0,27.90,SE,135,3.0,9.0,100,0.00,,,0.00,Rainwise IP-100,2013-03-11 11:28:00,
2013-03-11 07:33:00,48.0,48.0,27.90,WSW,247,1.0,6.0,100,0.00,,,0.00,Rainwise IP-100,2013-03-11 11:33:00,
2013-03-11 07:38:00,48.0,48.0,27.90,SSW,202,0.0,10.0,100,0.00,,,0.00,Rainwise IP-100,2013-03-11 11:38:00,
2013-03-11 07:43:00,48.0,48.0,27.90,SSE,157,1.0,5.0,100,0.00,,,0.00,Rainwise IP-100,2013-03-11 11:43:00,
2013-03-11 07:48:00,48.0,48.0,27.90,ESE,112,3.0,5.0,100,0.00,,,0.00,Rainwise IP-100,2013-03-11 11:48:00,
2013-03-11 07:53:00,48.0,48.0,27.90,South,180,3.0,10.0,100,0.00,,,0.00,Rainwise IP-100,2013-03-11 11:53:00,
2013-03-11 07:58:00,48.0,48.0,27.90,ESE,112,5.0,10.0,100,0.00,,,0.00,Rainwise IP-100,2013-03-11 11:58:00,
2013-03-11 08:03:00,48.0,48.0,27.90,East,90,0.0,7.0,100,0.00,,,0.00,Rainwise IP-100,2013-03-11 12:03:00,
2013-03-11 08:08:00,48.0,48.0,27.90,East,90,3.0,4.0,100,0.00,,,0.00,Rainwise IP-100,2013-03-11 12:08:00,
2013-03-11 08:13:00,48.0,48.0,27.90,SE,135,2.0,3.0,100,0.00,,,0.00,Rainwise IP-100,2013-03-11 12:13:00,
2013-03-11 08:19:00,48.0,48.0,27.90,ESE,112,3.0,4.0,100,0.00,,,0.00,Rainwise IP-100,2013-03-11 12:19:00,
2013-03-11 08:24:00,48.0,48.0,27.91,ENE,67,0.0,4.0,100,0.00,,,0.00,Rainwise IP-100,2013-03-11 12:24:00,
2013-03-11 08:29:00,47.0,47.0,27.90,ENE,67,0.0,4.0,100,0.00,,,0.00,Rainwise IP-100,2013-03-11 12:29:00,
2013-03-11 08:34:00,47.0,47.0,27.90,NE,45,1.0,4.0,100,0.00,,,0.00,Rainwise IP-100,2013-03-11 12:34:00,
2013-03-11 08:39:00,47.0,47.0,27.91,SSW,202,0.0,5.0,100,0.00,,,0.00,Rainwise IP-100,2013-03-11 12:39:00,
2013-03-11 08:44:00,47.0,47.0,27.91,South,180,3.0,7.0,100,0.00,,,0.00,Rainwise IP-100,2013-03-11 12:44:00,
2013-03-11 08:49:00,47.0,47.0,27.91,South,180,3.0,4.0,100,0.00,,,0.00,Rainwise IP-100,2013-03-11 12:49:00,
2013-03-11 08:54:00,47.0,47.0,27.91,SW,225,4.0,6.0,100,0.00,,,0.00,Rainwise IP-100,2013-03-11 12:54:00,
2013-03-11 08:59:00,47.0,47.0,27.91,ESE,112,0.0,7.0,100,0.00,,,0.00,Rainwise IP-100,2013-03-11 12:59:00,
2013-03-11 09:04:00,47.0,47.0,27.91,SSE,157,3.0,3.0,100,0.00,,,0.00,Rainwise IP-100,2013-03-11 13:04:00,
2013-03-11 09:09:00,47.0,47.0,27.91,South,180,0.0,5.0,100,0.00,,,0.00,Rainwise IP-100,2013-03-11 13:09:00,
2013-03-11 09:14:00,47.0,47.0,27.91,East,90,0.0,6.0,100,0.00,,,0.00,Rainwise IP-100,2013-03-11 13:14:00,
2013-03-11 09:19:00,47.0,47.0,27.90,SE,135,0.0,9.0,100,0.00,,,0.00,Rainwise IP-100,2013-03-11 13:19:00,
2013-03-11 09:24:00,47.0,47.0,27.90,ESE,112,0.0,5.0,100,0.00,,,0.00,Rainwise IP-100,2013-03-11 13:24:00,
2013-03-11 09:29:00,47.0,47.0,27.90,SSW,202,4.0,8.0,100,0.00,,,0.00,Rainwise IP-100,2013-03-11 13:29:00,
2013-03-11 09:34:00,47.0,47.0,27.90,South,180,1.0,10.0,100,0.00,,,0.00,Rainwise IP-100,2013-03-11 13:34:00,
2013-03-11 09:39:00,47.0,47.0,27.90,ENE,67,1.0,5.0,100,0.00,,,0.00,Rainwise IP-100,2013-03-11 13:39:00,
2013-03-11 09:44:00,47.0,47.0,27.90,SSW,202,4.0,6.0,100,0.00,,,0.00,Rainwise IP-100,2013-03-11 13:44:00,
2013-03-11 09:49:00,47.0,47.0,27.90,ENE,67,2.0,5.0,100,0.00,,,0.00,Rainwise IP-100,2013-03-11 13:49:00,
2013-03-11 09:54:00,47.0,47.0,27.90,ESE,112,3.0,7.0,100,0.00,,,0.00,Rainwise IP-100,2013-03-11 13:54:00,
2013-03-11 09:59:00,47.0,47.0,27.89,NE,45,2.0,7.0,100,0.00,,,0.00,Rainwise IP-100,2013-03-11 13:59:00,
2013-03-11 10:04:00,48.0,48.0,27.89,ESE,112,2.0,10.0,100,0.00,,,0.00,Rainwise IP-100,2013-03-11 14:04:00,
2013-03-11 10:09:00,48.0,48.0,27.89,SE,135,2.0,9.0,100,0.00,,,0.00,Rainwise IP-100,2013-03-11 14:09:00,
2013-03-11 10:14:00,48.0,48.0,27.89,East,90,8.0,8.0,100,0.00,,,0.00,Rainwise IP-100,2013-03-11 14:14:00,
2013-03-11 10:19:00,48.0,48.0,27.89,SE,135,2.0,8.0,100,0.00,,,0.00,Rainwise IP-100,2013-03-11 14:19:00,
2013-03-11 10:24:00,48.0,48.0,27.89,ESE,112,1.0,6.0,100,0.00,,,0.00,Rainwise IP-100,2013-03-11 14:24:00,
2013-03-11 10:29:00,48.0,48.0,27.88,SE,135,6.0,8.0,100,0.00,,,0.00,Rainwise IP-100,2013-03-11 14:29:00,
2013-03-11 10:34:00,48.0,48.0,27.88,SSE,157,3.0,9.0,100,0.00,,,0.00,Rainwise IP-100,2013-03-11 14:34:00,
2013-03-11 10:39:00,48.0,48.0,27.88,NE,45,4.0,8.0,100,0.00,,,0.00,Rainwise IP-100,2013-03-11 14:39:00,
2013-03-11 10:44:00,48.0,48.0,27.88,NE,45,1.0,9.0,100,0.00,,,0.00,Rainwise IP-100,2013-03-11 14:44:00,
2013-03-11 10:49:00,48.0,48.0,27.87,NE,45,4.0,10.0,100,0.00,,,0.00,Rainwise IP-100,2013-03-11 14:49:00,
2013-03-11 10:54:00,49.0,49.0,27.87,SE,135,7.0,10.0,100,0.00,,,0.00,Rainwise IP-100,2013-03-11 14:54:00,
2013-03-11 10:59:00,48.0,48.0,27.87,ESE,112,3.0,13.0,100,0.00,,,0.00,Rainwise IP-100,2013-03-11 14:59:00,
2013-03-11 11:04:00,48.0,48.0,27.87,ESE,112,1.0,7.0,100,0.00,,,0.00,Rainwise IP-100,2013-03-11 15:04:00,
2013-03-11 11:09:00,48.0,48.0,27.87,ESE,112,0.0,9.0,100,0.00,,,0.00,Rainwise IP-100,2013-03-11 15:09:00,
2013-03-11 11:14:00,49.0,49.0,27.87,SE,135,3.0,6.0,100,0.00,,,0.00,Rainwise IP-100,2013-03-11 15:14:00,
2013-03-11 11:19:00,49.0,49.0,27.86,ESE,112,2.0,9.0,100,0.00,,,0.00,Rainwise IP-100,2013-03-11 15:19:00,
2013-03-11 11:24:00,49.0,49.0,27.86,East,90,3.0,6.0,100,0.00,,,0.00,Rainwise IP-100,2013-03-11 15:24:00,
2013-03-11 11:29:00,49.0,49.0,27.86,ENE,67,5.0,10.0,100,0.00,,,0.00,Rainwise IP-100,2013-03-11 15:29:00,
2013-03-11 11:34:00,49.0,49.0,27.86,ESE,112,0.0,10.0,100,0.00,,,0.00,Rainwise IP-100,2013-03-11 15:34:00,
2013-03-11 11:39:00,48.0,48.0,27.86,ESE,112,8.0,10.0,100,0.00,,,0.00,Rainwise IP-100,2013-03-11 15:39:00,
2013-03-11 11:44:00,48.0,48.0,27.86,East,90,1.0,9.0,100,0.00,,,0.00,Rainwise IP-100,2013-03-11 15:44:00,
2013-03-11 11:49:00,48.0,48.0,27.86,SSE,157,7.0,8.0,100,0.00,,,0.00,Rainwise IP-100,2013-03-11 15:49:00,
2013-03-11 11:54:00,48.0,48.0,27.86,SSE,157,4.0,10.0,100,0.00,,,0.00,Rainwise IP-100,2013-03-11 15:54:00,
2013-03-11 11:59:00,48.0,48.0,27.85,ENE,67,2.0,10.0,100,0.00,,,0.00,Rainwise IP-100,2013-03-11 15:59:00,
2013-03-11 12:04:00,48.0,48.0,27.85,SE,135,0.0,8.0,100,0.00,,,0.00,Rainwise IP-100,2013-03-11 16:04:00,
2013-03-11 12:09:00,48.0,48.0,27.84,SE,135,8.0,9.0,100,0.00,,,0.00,Rainwise IP-100,2013-03-11 16:09:00,
2013-03-11 12:14:00,48.0,48.0,27.84,ENE,67,0.0,10.0,100,0.00,,,0.00,Rainwise IP-100,2013-03-11 16:14:00,
2013-03-11 12:19:00,48.0,48.0,27.84,ENE,67,2.0,10.0,100,0.00,,,0.00,Rainwise IP-100,2013-03-11 16:19:00,
2013-03-11 12:24:00,48.0,48.0,27.84,East,90,2.0,9.0,100,0.00,,,0.00,Rainwise IP-100,2013-03-11 16:24:00,
2013-03-11 12:29:00,48.0,48.0,27.84,SE,135,5.0,7.0,100,0.06,,,0.01,Rainwise IP-100,2013-03-11 16:29:00,
2013-03-11 12:34:00,48.0,48.0,27.84,SSE,157,4.0,8.0,100,0.06,,,0.01,Rainwise IP-100,2013-03-11 16:34:00,
2013-03-11 12:39:00,48.0,48.0,27.85,ENE,67,0.0,7.0,100,0.00,,,0.01,Rainwise IP-100,2013-03-11 16:39:00,
2013-03-11 12:44:00,48.0,48.0,27.85,ENE,67,2.0,9.0,100,0.00,,,0.01,Rainwise IP-100,2013-03-11 16:44:00,
2013-03-11 12:49:00,48.0,48.0,27.84,ENE,67,4.0,9.0,100,0.00,,,0.01,Rainwise IP-100,2013-03-11 16:49:00,
2013-03-11 12:54:00,48.0,48.0,27.84,ENE,67,4.0,8.0,100,0.00,,,0.01,Rainwise IP-100,2013-03-11 16:54:00,
2013-03-11 12:59:00,48.0,48.0,27.83,ENE,67,2.0,8.0,100,0.00,,,0.01,Rainwise IP-100,2013-03-11 16:59:00,
2013-03-11 13:04:00,48.0,48.0,27.83,ESE,112,4.0,9.0,100,0.00,,,0.01,Rainwise IP-100,2013-03-11 17:04:00,
2013-03-11 13:09:00,48.0,48.0,27.84,ESE,112,4.0,9.0,100,0.00,,,0.01,Rainwise IP-100,2013-03-11 17:09:00,
2013-03-11 13:14:00,48.0,48.0,27.84,East,90,3.0,9.0,100,0.00,,,0.01,Rainwise IP-100,2013-03-11 17:14:00,
2013-03-11 13:19:00,48.0,48.0,27.83,SE,135,3.0,7.0,100,0.00,,,0.01,Rainwise IP-100,2013-03-11 17:19:00,
2013-03-11 13:24:00,48.0,48.0,27.83,SE,135,4.0,9.0,100,0.00,,,0.01,Rainwise IP-100,2013-03-11 17:24:00,
2013-03-11 13:29:00,48.0,48.0,27.83,ENE,67,1.0,5.0,100,0.00,,,0.01,Rainwise IP-100,2013-03-11 17:29:00,
2013-03-11 13:34:00,48.0,48.0,27.83,SE,135,8.0,9.0,100,0.00,,,0.01,Rainwise IP-100,2013-03-11 17:34:00,
2013-03-11 13:39:00,48.0,48.0,27.83,ENE,67,0.0,8.0,100,0.00,,,0.01,Rainwise IP-100,2013-03-11 17:39:00,
2013-03-11 13:44:00,48.0,48.0,27.83,East,90,0.0,5.0,100,0.00,,,0.01,Rainwise IP-100,2013-03-11 17:44:00,
2013-03-11 13:49:00,48.0,48.0,27.82,SE,135,4.0,4.0,100,0.00,,,0.01,Rainwise IP-100,2013-03-11 17:49:00,
2013-03-11 13:54:00,49.0,49.0,27.82,NE,45,3.0,10.0,100,0.00,,,0.01,Rainwise IP-100,2013-03-11 17:54:00,
2013-03-11 13:59:00,49.0,49.0,27.80,ESE,112,4.0,5.0,100,0.00,,,0.01,Rainwise IP-100,2013-03-11 17:59:00,
2013-03-11 14:04:00,49.0,49.0,27.80,East,90,1.0,7.0,100,0.00,,,0.01,Rainwise IP-100,2013-03-11 18:04:00,
2013-03-11 14:09:00,49.0,49.0,27.79,SE,135,0.0,4.0,100,0.00,,,0.01,Rainwise IP-100,2013-03-11 18:09:00,
2013-03-11 14:14:00,49.0,49.0,27.79,ENE,67,0.0,6.0,100,0.00,,,0.01,Rainwise IP-100,2013-03-11 18:14:00,
2013-03-11 14:19:00,49.0,49.0,27.78,East,90,3.0,5.0,100,0.00,,,0.01,Rainwise IP-100,2013-03-11 18:19:00,
2013-03-11 14:24:00,49.0,49.0,27.78,ENE,67,0.0,6.0,100,0.00,,,0.01,Rainwise IP-100,2013-03-11 18:24:00,
2013-03-11 14:29:00,50.0,50.0,27.76,East,90,0.0,5.0,100,0.00,,,0.01,Rainwise IP-100,2013-03-11 18:29:00,
2013-03-11 14:34:00,50.0,50.0,27.76,ENE,67,0.0,5.0,100,0.00,,,0.01,Rainwise IP-100,2013-03-11 18:34:00,
2013-03-11 14:39:00,51.0,51.0,27.76,East,90,3.0,7.0,100,0.00,,,0.01,Rainwise IP-100,2013-03-11 18:39:00,
2013-03-11 14:44:00,51.0,51.0,27.76,East,90,0.0,7.0,100,0.00,,,0.01,Rainwise IP-100,2013-03-11 18:44:00,
2013-03-11 14:49:00,51.0,51.0,27.76,NE,45,3.0,7.0,100,0.00,,,0.01,Rainwise IP-100,2013-03-11 18:49:00,
2013-03-11 14:54:00,51.0,51.0,27.76,East,90,3.0,8.0,100,0.00,,,0.01,Rainwise IP-100,2013-03-11 18:54:00,
2013-03-11 14:59:00,51.0,51.0,27.76,NE,45,4.0,7.0,100,0.00,,,0.01,Rainwise IP-100,2013-03-11 18:59:00,
2013-03-11 15:04:00,52.0,52.0,27.76,ENE,67,3.0,4.0,100,0.00,,,0.01,Rainwise IP-100,2013-03-11 19:04:00,
2013-03-11 15:09:00,52.0,52.0,27.75,ENE,67,2.0,4.0,100,0.00,,,0.01,Rainwise IP-100,2013-03-11 19:09:00,
2013-03-11 15:14:00,52.0,52.0,27.75,East,90,2.0,5.0,100,0.00,,,0.01,Rainwise IP-100,2013-03-11 19:14:00,
2013-03-11 15:19:00,52.0,52.0,27.75,ESE,112,6.0,6.0,100,0.00,,,0.01,Rainwise IP-100,2013-03-11 19:19:00,
2013-03-11 15:24:00,53.0,53.0,27.75,ENE,67,3.0,7.0,100,0.00,,,0.01,Rainwise IP-100,2013-03-11 19:24:00,
2013-03-11 15:29:00,53.0,53.0,27.72,ENE,67,3.0,8.0,100,0.00,,,0.01,Rainwise IP-100,2013-03-11 19:29:00,
2013-03-11 15:35:00,53.0,53.0,27.72,NE,45,2.0,4.0,100,0.00,,,0.01,Rainwise IP-100,2013-03-11 19:35:00,
2013-03-11 15:40:00,53.0,53.0,27.72,NE,45,2.0,5.0,100,0.00,,,0.01,Rainwise IP-100,2013-03-11 19:40:00,
2013-03-11 15:45:00,53.0,53.0,27.72,NE,45,2.0,3.0,100,0.00,,,0.01,Rainwise IP-100,2013-03-11 19:45:00,
2013-03-11 15:50:00,53.0,53.0,27.73,ESE,112,1.0,5.0,100,0.00,,,0.01,Rainwise IP-100,2013-03-11 19:50:00,
2013-03-11 15:55:00,53.0,53.0,27.73,NE,45,1.0,4.0,100,0.00,,,0.01,Rainwise IP-100,2013-03-11 19:55:00,
2013-03-11 16:00:00,54.0,54.0,27.73,ENE,67,0.0,4.0,100,0.00,,,0.01,Rainwise IP-100,2013-03-11 20:00:00,
2013-03-11 16:05:00,54.0,54.0,27.73,NE,45,4.0,7.0,100,0.00,,,0.01,Rainwise IP-100,2013-03-11 20:05:00,
2013-03-11 16:10:00,54.0,54.0,27.72,NE,45,2.0,4.0,100,0.00,,,0.01,Rainwise IP-100,2013-03-11 20:10:00,
2013-03-11 16:15:00,54.0,54.0,27.72,NE,45,0.0,4.0,100,0.00,,,0.01,Rainwise IP-100,2013-03-11 20:15:00,
2013-03-11 16:20:00,54.0,54.0,27.72,East,90,0.0,3.0,100,0.00,,,0.01,Rainwise IP-100,2013-03-11 20:20:00,
2013-03-11 16:25:00,54.0,54.0,27.72,ENE,67,1.0,3.0,100,0.00,,,0.01,Rainwise IP-100,2013-03-11 20:25:00,
2013-03-11 16:30:00,54.0,54.0,27.71,NE,45,1.0,3.0,100,0.00,,,0.01,Rainwise IP-100,2013-03-11 20:30:00,
2013-03-11 16:35:00,54.0,54.0,27.71,ENE,67,1.0,7.0,100,0.00,,,0.01,Rainwise IP-100,2013-03-11 20:35:00,
2013-03-11 16:40:00,54.0,54.0,27.72,SSW,202,0.0,6.0,100,0.00,,,0.01,Rainwise IP-100,2013-03-11 20:40:00,
2013-03-11 16:45:00,54.0,54.0,27.72,WNW,292,0.0,5.0,100,0.00,,,0.01,Rainwise IP-100,2013-03-11 20:45:00,
2013-03-11 16:50:00,55.0,55.0,27.72,NE,45,0.0,4.0,100,0.00,,,0.01,Rainwise IP-100,2013-03-11 20:50:00,
2013-03-11 16:55:00,55.0,55.0,27.72,ENE,67,2.0,5.0,100,0.00,,,0.01,Rainwise IP-100,2013-03-11 20:55:00,
2013-03-11 17:00:00,55.0,55.0,27.68,East,90,2.0,10.0,100,0.00,,,0.01,Rainwise IP-100,2013-03-11 21:00:00,
2013-03-11 17:05:00,55.0,55.0,27.68,SE,135,0.0,5.0,100,0.00,,,0.01,Rainwise IP-100,2013-03-11 21:05:00,
2013-03-11 17:10:00,55.0,55.0,27.71,East,90,0.0,4.0,100,0.00,,,0.01,Rainwise IP-100,2013-03-11 21:10:00,
2013-03-11 17:15:00,56.0,56.0,27.71,SSE,157,1.0,6.0,100,0.00,,,0.01,Rainwise IP-100,2013-03-11 21:15:00,
2013-03-11 17:20:00,55.0,55.0,27.69,ESE,112,1.0,5.0,100,0.00,,,0.01,Rainwise IP-100,2013-03-11 21:20:00,
2013-03-11 17:25:00,55.0,55.0,27.69,SSE,157,2.0,5.0,100,0.00,,,0.01,Rainwise IP-100,2013-03-11 21:25:00,
2013-03-11 17:30:00,55.0,55.0,27.68,East,90,0.0,8.0,100,0.00,,,0.01,Rainwise IP-100,2013-03-11 21:30:00,
2013-03-11 17:35:00,56.0,56.0,27.68,SE,135,2.0,11.0,100,0.00,,,0.01,Rainwise IP-100,2013-03-11 21:35:00,
2013-03-11 17:40:00,56.0,56.0,27.67,ENE,67,0.0,10.0,100,0.00,,,0.01,Rainwise IP-100,2013-03-11 21:40:00,
2013-03-11 17:45:00,56.0,56.0,27.67,East,90,0.0,10.0,100,0.00,,,0.01,Rainwise IP-100,2013-03-11 21:45:00,
2013-03-11 17:50:00,55.0,55.0,27.67,ENE,67,0.0,7.0,100,0.00,,,0.01,Rainwise IP-100,2013-03-11 21:50:00,
2013-03-11 17:55:00,55.0,55.0,27.67,ENE,67,1.0,13.0,100,0.00,,,0.01,Rainwise IP-100,2013-03-11 21:55:00,
2013-03-11 18:00:00,55.0,55.0,27.68,SE,135,2.0,7.0,100,0.00,,,0.01,Rainwise IP-100,2013-03-11 22:00:00,
2013-03-11 18:05:00,54.0,54.0,27.68,SSE,157,2.0,5.0,100,0.06,,,0.02,Rainwise IP-100,2013-03-11 22:05:00,
2013-03-11 18:10:00,54.0,54.0,27.70,SSW,202,0.0,5.0,100,0.12,,,0.03,Rainwise IP-100,2013-03-11 22:10:00,
2013-03-11 18:15:00,53.0,53.0,27.70,East,90,0.0,5.0,100,0.12,,,0.04,Rainwise IP-100,2013-03-11 22:15:00,
2013-03-11 18:20:00,53.0,53.0,27.70,ESE,112,3.0,6.0,100,0.12,,,0.05,Rainwise IP-100,2013-03-11 22:20:00,
2013-03-11 18:25:00,53.0,53.0,27.70,East,90,1.0,5.0,100,0.12,,,0.06,Rainwise IP-100,2013-03-11 22:25:00,
2013-03-11 18:30:00,53.0,53.0,27.69,ESE,112,3.0,6.0,100,0.06,,,0.06,Rainwise IP-100,2013-03-11 22:30:00,
2013-03-11 18:35:00,53.0,53.0,27.69,ESE,112,2.0,6.0,100,0.06,,,0.07,Rainwise IP-100,2013-03-11 22:35:00,
2013-03-11 18:40:00,53.0,53.0,27.69,SE,135,0.0,3.0,100,0.12,,,0.08,Rainwise IP-100,2013-03-11 22:40:00,
2013-03-11 18:45:00,52.0,52.0,27.69,ENE,67,0.0,4.0,100,0.12,,,0.09,Rainwise IP-100,2013-03-11 22:45:00,
2013-03-11 18:50:00,52.0,52.0,27.69,SE,135,2.0,3.0,100,0.06,,,0.09,Rainwise IP-100,2013-03-11 22:50:00,
2013-03-11 18:55:00,53.0,53.0,27.69,ESE,112,3.0,5.0,100,0.06,,,0.10,Rainwise IP-100,2013-03-11 22:55:00,
2013-03-11 19:00:00,53.0,53.0,27.68,NNE,22,4.0,8.0,100,0.12,,,0.11,Rainwise IP-100,2013-03-11 23:00:00,
2013-03-11 19:05:00,52.0,52.0,27.68,East,90,1.0,5.0,100,0.12,,,0.12,Rainwise IP-100,2013-03-11 23:05:00,
2013-03-11 19:10:00,52.0,52.0,27.69,East,90,0.0,6.0,100,0.06,,,0.12,Rainwise IP-100,2013-03-11 23:10:00,
2013-03-11 19:15:00,52.0,52.0,27.69,SE,135,4.0,5.0,100,0.06,,,0.13,Rainwise IP-100,2013-03-11 23:15:00,
2013-03-11 19:20:00,52.0,52.0,27.69,SE,135,3.0,8.0,100,0.12,,,0.14,Rainwise IP-100,2013-03-11 23:20:00,
2013-03-11 19:25:00,52.0,52.0,27.69,ESE,112,0.0,5.0,100,0.12,,,0.15,Rainwise IP-100,2013-03-11 23:25:00,
2013-03-11 19:30:00,52.0,52.0,27.70,East,90,4.0,5.0,100,0.12,,,0.16,Rainwise IP-100,2013-03-11 23:30:00,
2013-03-11 19:35:00,52.0,52.0,27.70,East,90,0.0,5.0,100,0.12,,,0.17,Rainwise IP-100,2013-03-11 23:35:00,
2013-03-11 19:40:00,52.0,52.0,27.70,East,90,0.0,7.0,100,0.12,,,0.18,Rainwise IP-100,2013-03-11 23:40:00,
2013-03-11 19:45:00,52.0,52.0,27.70,South,180,0.0,5.0,100,0.06,,,0.18,Rainwise IP-100,2013-03-11 23:45:00,
2013-03-11 19:50:00,52.0,52.0,27.71,SSE,157,1.0,7.0,100,0.06,,,0.19,Rainwise IP-100,2013-03-11 23:50:00,
2013-03-11 19:55:00,52.0,52.0,27.71,East,90,1.0,5.0,100,0.12,,,0.20,Rainwise IP-100,2013-03-11 23:55:00,
2013-03-11 20:00:00,52.0,52.0,27.70,SSW,202,0.0,5.0,100,0.12,,,0.21,Rainwise IP-100,2013-03-12 00:00:00,
2013-03-11 20:05:00,52.0,52.0,27.70,NE,45,3.0,3.0,100,0.12,,,0.22,Rainwise IP-100,2013-03-12 00:05:00,
2013-03-11 20:10:00,52.0,52.0,27.71,SSE,157,2.0,4.0,100,0.06,,,0.23,Rainwise IP-100,2013-03-12 00:10:00,
2013-03-11 20:15:00,52.0,52.0,27.71,SE,135,2.0,6.0,100,0.06,,,0.23,Rainwise IP-100,2013-03-12 00:15:00,
2013-03-11 20:20:00,52.0,52.0,27.70,SE,135,0.0,7.0,100,0.18,,,0.25,Rainwise IP-100,2013-03-12 00:20:00,
2013-03-11 20:25:00,52.0,52.0,27.70,ESE,112,1.0,8.0,100,0.18,,,0.26,Rainwise IP-100,2013-03-12 00:25:00,
2013-03-11 20:30:00,52.0,52.0,27.72,ESE,112,1.0,5.0,100,0.24,,,0.29,Rainwise IP-100,2013-03-12 00:30:00,
2013-03-11 20:35:00,52.0,52.0,27.72,ESE,112,0.0,3.0,100,0.30,,,0.31,Rainwise IP-100,2013-03-12 00:35:00,
2013-03-11 20:40:00,52.0,52.0,27.71,WNW,292,0.0,1.0,100,0.24,,,0.33,Rainwise IP-100,2013-03-12 00:40:00,
2013-03-11 20:45:00,52.0,52.0,27.71,WNW,292,1.0,1.0,100,0.24,,,0.35,Rainwise IP-100,2013-03-12 00:45:00,
2013-03-11 20:50:00,52.0,52.0,27.72,West,270,1.0,3.0,100,0.36,,,0.40,Rainwise IP-100,2013-03-12 00:50:00,
2013-03-11 20:55:00,51.0,51.0,27.72,WSW,247,0.0,1.0,100,0.54,,,0.45,Rainwise IP-100,2013-03-12 00:55:00,
2013-03-11 21:00:00,51.0,51.0,27.71,WSW,247,0.0,0.0,100,0.48,,,0.47,Rainwise IP-100,2013-03-12 01:00:00,
2013-03-11 21:05:00,51.0,51.0,27.71,WSW,247,0.0,0.0,100,0.24,,,0.49,Rainwise IP-100,2013-03-12 01:05:00,
2013-03-11 21:10:00,51.0,51.0,27.72,WSW,247,0.0,0.0,100,0.18,,,0.50,Rainwise IP-100,2013-03-12 01:10:00,
2013-03-11 21:15:00,51.0,50.5,27.72,WSW,247,0.0,0.0,98,0.18,,,0.51,Rainwise IP-100,2013-03-12 01:15:00,
2013-03-11 21:20:00,51.0,50.5,27.72,WSW,247,0.0,0.0,98,0.18,,,0.53,Rainwise IP-100,2013-03-12 01:20:00,
2013-03-11 21:25:00,51.0,50.5,27.72,WSW,247,0.0,0.0,97,0.24,,,0.55,Rainwise IP-100,2013-03-12 01:25:00,
2013-03-11 21:30:00,51.0,50.5,27.72,WSW,247,0.0,0.0,97,0.24,,,0.57,Rainwise IP-100,2013-03-12 01:30:00,
2013-03-11 21:35:00,51.0,50.5,27.72,WSW,247,0.0,0.0,97,0.18,,,0.58,Rainwise IP-100,2013-03-12 01:35:00,
2013-03-11 21:40:00,51.0,50.5,27.71,WSW,247,0.0,0.0,97,0.12,,,0.59,Rainwise IP-100,2013-03-12 01:40:00,
2013-03-11 21:45:00,51.0,50.5,27.71,NNE,22,0.0,0.0,98,0.12,,,0.60,Rainwise IP-100,2013-03-12 01:45:00,
2013-03-11 21:50:00,51.0,50.5,27.71,NNE,22,0.0,0.0,97,0.12,,,0.61,Rainwise IP-100,2013-03-12 01:50:00,
2013-03-11 21:55:00,51.0,50.5,27.71,NNE,22,0.0,2.0,98,0.06,,,0.61,Rainwise IP-100,2013-03-12 01:55:00,
2013-03-11 22:00:00,51.0,50.5,27.70,NNE,22,0.0,1.0,97,0.06,,,0.62,Rainwise IP-100,2013-03-12 02:00:00,
2013-03-11 22:05:00,51.0,50.5,27.70,NNE,22,0.0,0.0,97,0.06,,,0.62,Rainwise IP-100,2013-03-12 02:05:00,
2013-03-11 22:10:00,51.0,50.5,27.71,NNE,22,0.0,0.0,97,0.06,,,0.63,Rainwise IP-100,2013-03-12 02:10:00,
2013-03-11 22:15:00,51.0,50.5,27.71,NNE,22,0.0,1.0,98,0.12,,,0.64,Rainwise IP-100,2013-03-12 02:15:00,
2013-03-11 22:20:00,51.0,50.5,27.70,NNE,22,0.0,0.0,98,0.06,,,0.65,Rainwise IP-100,2013-03-12 02:20:00,
2013-03-11 22:25:00,51.0,50.5,27.70,NE,45,1.0,2.0,98,0.06,,,0.65,Rainwise IP-100,2013-03-12 02:25:00,
2013-03-11 22:30:00,51.0,51.0,27.69,NE,45,2.0,3.0,99,0.12,,,0.66,Rainwise IP-100,2013-03-12 02:30:00,
2013-03-11 22:35:00,51.0,51.0,27.69,NNE,22,0.0,3.0,100,0.06,,,0.66,Rainwise IP-100,2013-03-12 02:35:00,
2013-03-11 22:40:00,51.0,50.5,27.69,NNE,22,2.0,3.0,98,0.00,,,0.67,Rainwise IP-100,2013-03-12 02:40:00,
2013-03-11 22:45:00,51.0,51.0,27.69,NNE,22,0.0,3.0,99,0.06,,,0.67,Rainwise IP-100,2013-03-12 02:45:00,
2013-03-11 22:50:00,51.0,50.5,27.69,NNE,22,0.0,0.0,98,0.12,,,0.68,Rainwise IP-100,2013-03-12 02:50:00,
2013-03-11 22:55:00,51.0,50.5,27.69,NNE,22,2.0,3.0,98,0.06,,,0.68,Rainwise IP-100,2013-03-12 02:55:00,
2013-03-11 23:00:00,51.0,50.5,27.68,NNE,22,0.0,3.0,98,0.00,,,0.68,Rainwise IP-100,2013-03-12 03:00:00,
2013-03-11 23:05:00,51.0,50.5,27.68,NNE,22,0.0,0.0,98,0.06,,,0.69,Rainwise IP-100,2013-03-12 03:05:00,
2013-03-11 23:10:00,51.0,50.5,27.69,NNE,22,0.0,2.0,97,0.06,,,0.70,Rainwise IP-100,2013-03-12 03:10:00,
2013-03-11 23:15:00,51.0,50.5,27.69,NNE,22,0.0,2.0,98,0.06,,,0.70,Rainwise IP-100,2013-03-12 03:15:00,
2013-03-11 23:20:00,51.0,50.5,27.68,ESE,112,0.0,0.0,98,0.06,,,0.70,Rainwise IP-100,2013-03-12 03:20:00,
2013-03-11 23:25:00,51.0,51.0,27.68,NE,45,0.0,1.0,99,0.06,,,0.71,Rainwise IP-100,2013-03-12 03:25:00,
2013-03-11 23:30:00,51.0,51.0,27.67,NE,45,0.0,2.0,99,0.06,,,0.71,Rainwise IP-100,2013-03-12 03:30:00,
2013-03-11 23:35:00,51.0,50.5,27.67,ENE,67,0.0,3.0,98,0.06,,,0.72,Rainwise IP-100,2013-03-12 03:35:00,
2013-03-11 23:41:00,51.0,51.0,27.67,ENE,67,0.0,0.0,100,0.06,,,0.72,Rainwise IP-100,2013-03-12 03:41:00,
2013-03-11 23:46:00,51.0,51.0,27.67,ENE,67,0.0,2.0,100,0.00,,,0.72,Rainwise IP-100,2013-03-12 03:46:00,
2013-03-11 23:51:00,51.0,51.0,27.67,ENE,67,1.0,2.0,100,0.06,,,0.73,Rainwise IP-100,2013-03-12 03:51:00,
2013-03-11 23:56:00,51.0,51.0,27.67,NE,45,0.0,1.0,100,0.24,,,0.76,Rainwise IP-100,2013-03-12 03:56:00,